カタログに戻る

ATLAS 5 CENTAUR DEB

LostHEO
NORAD 46864·DEBRIS·🇺🇸 United States

打ち上げ Oct 17, 2018 から Cape Canaveral Space Force Station

Loading…

次のパス (今後24時間)

TLE

古いSource: Space-Track

元期: Mar 2, 2021, 10:32 UTC

1 46864U 18079DV  21061.43898066 -.00000100  00000-0  00000+0 0  9998
2 46864  11.2158 205.4943 4502946 352.7391   2.2936  1.89013354  2272

AllMySatでATLAS 5 CENTAUR DEBをリアルタイム追跡

Download on the App Store